Pasco, WA

1:00 AM PDT on May 28, 2017 (GMT -0700)
Tri-Cities

Weather History for KPSC - February, 2013

Change the Weather History Date:

Saturday, February 23, 2013

  Actual Average Record
Temperature  
Mean Temperature 43 °F 40 °F  
Max Temperature 55 °F 52 °F 62 °F (1995)
Min Temperature 31 °F 29 °F 17 °F (2015)
Degree Days  
Heating Degree Days 22 25  
Month to date heating degree days 593 613  
Since 1 July heating degree days 3504 3764  
Cooling Degree Days 0 0  
Month to date cooling degree days 0 0  
Year to date cooling degree days 0 0  
Moisture  
Dew Point 26 °F    
Average Humidity 50    
Maximum Humidity 70    
Minimum Humidity 29    
Precipitation  
Precipitation 0.00 in 0.03 in 0.32 in (1986)
Month to date precipitation 0.01 0.72  
Year to date precipitation 0.37 1.94  
Snow  
Snow 0.00 in - - ()
Snow Depth 0.00 in    
Sea Level Pressure  
Sea Level Pressure 30.10 in    
Wind  
Wind Speed 13 mph (WSW)    
Max Wind Speed 24 mph    
Max Gust Speed 30 mph    
Visibility 10 miles    
Events      
T = Trace of Precipitation, MM = Missing Value Source: NWS Daily Summary

Daily Weather History Graph

Daily Weather History Graph

Search for Another Location

Airport or City:

Trip Planner

Search our weather history database for the weather conditions in past years. The results will help you decide how hot, cold, wet, or windy it might be!

Date:

Astronomy

Feb. 23, 2013 Rise Set
Actual Time 6:45 AM PST 5:34 PM PST
Civil Twilight 6:15 AM PST 6:05 PM PST
Nautical Twilight 5:40 AM PST 6:39 PM PST
Astronomical Twilight 5:05 AM PST 7:14 PM PST
Moon 3:46 PM PST (2/23) 5:15 AM PST (2/23)
Length of Visible Light 11h 49m
Length of Day
10h 48m
Waxing Gibbous, 96% of the Moon is Illuminated
Feb 23
Waxing Gibbous
Feb 25
Full
Mar 4
Last Quarter
Mar 11
New
Mar 19
First Quarter

Hourly Weather History & Observations

Time (PST) Temp. Windchill Dew Point Humidity Pressure Visibility Wind Dir Wind Speed Gust Speed Precip Events Conditions
12:53 AM 39.9 °F 32.1 °F 24.1 °F 53% 29.89 in 10.0 mi SW 13.8 mph - N/A   Clear
1:53 AM 37.0 °F 29.3 °F 23.0 °F 57% 29.92 in 10.0 mi SSW 11.5 mph - N/A   Clear
2:53 AM 36.0 °F 28.5 °F 26.1 °F 67% 29.94 in 10.0 mi SW 10.4 mph - N/A   Clear
3:53 AM 35.1 °F 28.6 °F 27.0 °F 72% 29.94 in 10.0 mi WSW 8.1 mph - N/A   Clear
4:53 AM 37.0 °F 28.5 °F 27.0 °F 67% 29.96 in 10.0 mi WSW 13.8 mph - N/A   Clear
5:53 AM 37.0 °F 27.0 °F 27.0 °F 67% 29.97 in 10.0 mi WSW 18.4 mph 23.0 mph N/A   Clear
6:53 AM 37.9 °F 27.6 °F 28.0 °F 68% 30.00 in 10.0 mi WSW 20.7 mph 26.5 mph N/A   Clear
7:53 AM 39.0 °F 29.9 °F 28.9 °F 67% 30.03 in 10.0 mi SW 17.3 mph - N/A   Clear
8:53 AM 39.9 °F 32.1 °F 28.9 °F 65% 30.05 in 10.0 mi SW 13.8 mph - N/A   Clear
9:53 AM 44.1 °F 37.4 °F 30.9 °F 60% 30.06 in 10.0 mi SW 13.8 mph - N/A   Clear
10:53 AM 50.0 °F - 30.0 °F 46% 30.08 in 10.0 mi SW 17.3 mph - N/A   Clear
11:53 AM 52.0 °F - 30.0 °F 43% 30.08 in 10.0 mi WSW 20.7 mph - N/A   Clear
12:53 PM 55.0 °F - 25.0 °F 31% 30.08 in 10.0 mi WSW 16.1 mph - N/A   Mostly Cloudy
1:53 PM 54.0 °F - 24.1 °F 31% 30.08 in 10.0 mi West 11.5 mph - N/A   Mostly Cloudy
2:53 PM 52.0 °F - 25.0 °F 35% 30.10 in 10.0 mi WNW 12.7 mph - N/A   Overcast
3:53 PM 53.1 °F - 23.0 °F 31% 30.12 in 10.0 mi NW 17.3 mph 25.3 mph N/A   Scattered Clouds
4:53 PM 48.9 °F - 23.0 °F 36% 30.15 in 10.0 mi NW 11.5 mph - N/A   Scattered Clouds
5:53 PM 46.0 °F 39.6 °F 25.0 °F 44% 30.18 in 10.0 mi WNW 15.0 mph - N/A   Scattered Clouds
6:53 PM 43.0 °F 37.2 °F 25.0 °F 49% 30.21 in 10.0 mi WNW 10.4 mph - N/A   Scattered Clouds
7:53 PM 42.1 °F 37.7 °F 23.0 °F 47% 30.25 in 10.0 mi West 6.9 mph - N/A   Clear
8:53 PM 39.0 °F - 23.0 °F 53% 30.27 in 10.0 mi Calm Calm - N/A   Clear
9:53 PM 37.0 °F 33.3 °F 21.9 °F 54% 30.30 in 10.0 mi South 4.6 mph - N/A   Clear
10:53 PM 34.0 °F 29.8 °F 21.9 °F 61% 30.32 in 10.0 mi South 4.6 mph - N/A   Clear
11:53 PM 30.9 °F 24.3 °F 24.1 °F 76% 30.32 in 10.0 mi SW 6.9 mph - N/A   Clear